Flag for U.S.A. Weather past 2 weeks in Tucson, Arizona, U.S.A.

Now
61 °F

Clear.


Feels Like: 61 °F
Forecast: 61 / 89 °F
Wind: 8 mph from Southeast

Location: Davis-Monthan Air Force Base


UV Index: 7 (High)

Visibility: 10 mi


Pressure: 29.83 "Hg

Humidity: 25%

Dew point: 25 °F

Location of TucsonLocation

Historic Weather in Tucson

°F

Tucson temperature yesterday

Maximum temperature yesterday: 87 °F (at 4:58 PM)
Minimum temperature yesterday: 52 °F (at 5:58 AM)
Average temperature yesterday: 71 °F

Past Weeks' High & Low Weather Summary

 TemperatureHumidityPressure
High92 °F (Apr 10, 3:58 PM)62% (Apr 20, 5:58 AM)30.02 "Hg (Apr 20, 5:58 AM)
Low52 °F (Apr 15, 3:58 AM)2% (Apr 10, 3:58 PM)29.63 "Hg (Apr 12, 3:58 PM)
Average72 °F19%29.83 "Hg
* Reported Apr 10 12:58 AM — Apr 25 12:58 AM, Tucson, Weather by CustomWeather, © 2014

Note: Actual official high and low records may vary slightly from our data, if they occured in-between our weather recording intervals... More about our weather records

Advertising

Historic Weather Conditions — Data for Previous 24 hours

 ConditionsComfort  
Time TempWeatherWind HumidityBarometerVisibility
12:58 AM
Apr 25
63 °FClear.7 mph19%29.85 "Hg10 mi
11:58 PM
Apr 24
65 °FClear.6 mph17%29.85 "Hg10 mi
10:58 PM70 °FClear.8 mph15%29.84 "Hg10 mi
9:58 PM72 °FClear.7 mph13%29.84 "Hg10 mi
8:58 PM75 °FClear.6 mph11%29.82 "Hg10 mi
7:58 PM79 °FClear.3 mph9%29.80 "Hg10 mi
5:58 PM85 °FSunny.10 mph7%29.79 "Hg10 mi
4:58 PM87 °FSunny.12 mph6%29.79 "Hg10 mi
3:58 PM86 °FSunny.9 mph6%29.80 "Hg10 mi
2:58 PM86 °FSunny.3 mph7%29.82 "Hg10 mi
1:58 PM85 °FSunny.6 mph7%29.83 "Hg10 mi
12:58 PM82 °FSunny.1 mph7%29.85 "Hg10 mi
11:58 AM81 °FSunny.8 mph7%29.88 "Hg10 mi
10:58 AM79 °FSunny.6 mph8%29.90 "Hg10 mi
9:58 AM77 °FSunny.9 mph8%29.90 "Hg10 mi
8:58 AM73 °FSunny.7 mph10%29.92 "Hg10 mi
7:58 AM66 °FSunny.8 mph14%29.92 "Hg10 mi
6:58 AM58 °FSunny.9 mph18%29.92 "Hg10 mi
5:58 AM52 °FSunny.9 mph22%29.90 "Hg10 mi
4:58 AM53 °FClear.7 mph21%29.88 "Hg10 mi
3:58 AM55 °FClear.6 mph20%29.86 "Hg10 mi
2:58 AM56 °FClear.7 mph19%29.86 "Hg10 mi
Weather by CustomWeather, © 2014

See weather overview